一网星座-0406星 (ONEWEB-0406 )

导读

ONEWEB-0406是隶属于英国OneWeb公司的低轨宽带通信卫星,于2021年12月27日发射升空,是OneWeb全球卫星互联网星座的组成单元。该卫星运行在约1200公里高度的近地极轨轨道,工作在Ku频段,单星质量在175-200kg区间,可为全球偏远、基础设施匮乏区域提供高速宽带网络服务,助力OneWeb完成近600颗卫星规模的全球星座组网。

Basic Information
目录编号:
50486
目录名称:
ONEWEB-0406
国际标识:
2021-132T
轨道中心:
EARTH
卫星名称:
一网星座-0406星
卫星全名:
一网星座-0406星 (ONEWEB-0406 )
卫星状态:
在轨 (已飞行1630 天)
发射日期:
2021-12-27 UTC
国别 :
英国 (GB)
星等 :
--
Orbit Information
数据来源 国际轨道数据 AOE轨道数据
星历时间 2026-06-14T08:17:57+0800
13小时前
查看轨道信息
2026-06-11T16:00:00+0800
3天前
查看轨道信息
半长轴 7567.884km 7567.879km
偏心率 0.0002344 0.0002185
轨道倾角 87.916° 87.916°
近地点辐角 87.209° 82.830°
升交点赤经 336.088° 336.621°
平近点角 272.931° 166.054°
近地点 1187.973km 1188.088km
远地点 1191.521km 1191.396km
周期 109.200分钟 109.200分钟
每日圈数 13.18685 13.186863
Detailed Information
平衡模式:
三轴稳定
覆盖范围:
全球
运营商:
一网卫星公司
运营商所在国:
英国
制造商(研发单位):
一网卫星公司
制造商所在国:
英国
使用方式:
暂无
Satellite Introduction
OneWeb卫星网络由648颗重约125公斤的微型卫星组成,运行在1200公里的轨道上。 每颗卫星都能够提供至少每秒8千兆位的吞吐量,以使用其高吞吐量的Ku频段有效载荷为家庭和移动平台提供互联网接入。该卫星仍在工作。
2D Orbit Map
3D Orbit Map
Orbit Altitude Analysis Chart
Orbit Inclination Analysis Chart
Orbit Comprehensive Analysis Chart
View Comprehensive Chart